| time (UTC) | temp F | wind direction | speed MPH | gust MPH | rain 1hr in | rain 24hr in | rain mn in | humidity % | barometer mb |
| 20260904211401 | 71 | 264 | 2.0 | 2.0 | 0.00 | 0.01 | 0.01 | 59 | 1014.3 |
| 20260904210856 | 70 | 295 | 1.0 | 1.0 | 0.00 | 0.01 | 0.01 | 62 | 1014.5 |
| 20260904210355 | 70 | 295 | 4.0 | 6.0 | 0.00 | 0.01 | 0.01 | 59 | 1014.2 |
| 20260904205852 | 70 | 168 | 3.0 | 5.0 | 0.00 | 0.01 | 0.01 | 59 | 1014.4 |
| 20260904205347 | 70 | 168 | 3.0 | 5.0 | 0.00 | 0.01 | 0.01 | 59 | 1014.4 |
| 20260904204844 | 69 | 350 | 2.0 | 3.0 | 0.00 | 0.01 | 0.01 | 60 | 1014.3 |
| 20260904204340 | 71 | 203 | 4.0 | 7.0 | 0.00 | 0.01 | 0.01 | 59 | 1014.3 |
| 20260904203836 | 70 | 254 | 2.0 | 6.0 | 0.00 | 0.01 | 0.01 | 61 | 1014.3 |
| 20260904203332 | 70 | 314 | 1.0 | 1.0 | 0.00 | 0.01 | 0.01 | 60 | 1014.1 |
| 20260904202827 | 71 | 282 | 4.0 | 5.0 | 0.00 | 0.01 | 0.01 | 59 | 1014.3 |
| 20260904202323 | 70 | 308 | 3.0 | 5.0 | 0.00 | 0.01 | 0.01 | 59 | 1014.3 |
| 20260904201819 | 70 | 293 | 3.0 | 5.0 | 0.00 | 0.01 | 0.01 | 59 | 1014.1 |
| 20260904201319 | 68 | 217 | 3.0 | 5.0 | 0.00 | 0.01 | 0.01 | 65 | 1014.1 |
| 20260904200814 | 68 | 309 | 1.0 | 1.0 | 0.00 | 0.01 | 0.01 | 66 | 1014.1 |
| 20260904200313 | 68 | 317 | 0.0 | 0.0 | 0.00 | 0.01 | 0.01 | 67 | 1013.9 |
| 20260904195808 | 68 | 113 | 3.0 | 3.0 | 0.00 | 0.01 | 0.01 | 66 | 1014.0 |
| 20260904195306 | 67 | 59 | 4.0 | 7.0 | 0.00 | 0.01 | 0.01 | 69 | 1014.2 |
| 20260904194801 | 68 | 309 | 1.0 | 2.0 | 0.00 | 0.01 | 0.01 | 67 | 1014.3 |
| 20260904194300 | 68 | 126 | 3.0 | 5.0 | 0.00 | 0.01 | 0.01 | 70 | 1014.3 |
| 20260904193755 | 68 | 48 | 1.0 | 2.0 | 0.00 | 0.01 | 0.01 | 68 | 1014.1 |
| 20260904193251 | 67 | 273 | 1.0 | 1.0 | 0.00 | 0.01 | 0.01 | 68 | 1014.2 |
| 20260904192746 | 68 | 205 | 1.0 | 2.0 | 0.00 | 0.01 | 0.01 | 69 | 1014.3 |
| 20260904192241 | 68 | 224 | 2.0 | 2.0 | 0.00 | 0.01 | 0.01 | 69 | 1014.3 |
| 20260904191738 | 68 | 313 | 0.0 | 0.0 | 0.00 | 0.01 | 0.01 | 69 | 1014.4 |
| 20260904191234 | 68 | 240 | 1.0 | 1.0 | 0.00 | 0.01 | 0.01 | 74 | 1014.2 |
| 20260904190731 | 66 | 140 | 0.0 | 0.0 | 0.00 | 0.01 | 0.01 | 75 | 1014.4 |
| 20260904190226 | 66 | 140 | 0.0 | 0.0 | 0.00 | 0.01 | 0.01 | 75 | 1014.4 |
| 20260904185723 | 65 | 18 | 0.0 | 1.0 | 0.00 | 0.01 | 0.01 | 77 | 1014.4 |
| 20260904185222 | 65 | 39 | 1.0 | 2.0 | 0.00 | 0.01 | 0.01 | 78 | 1014.4 |
| 20260904184721 | 65 | 39 | 1.0 | 2.0 | 0.00 | 0.01 | 0.01 | 78 | 1014.4 |
| 20260904184217 | 65 | 23 | 1.0 | 1.0 | 0.00 | 0.01 | 0.01 | 77 | 1014.4 |
| 20260904183713 | 65 | 332 | 0.0 | 0.0 | 0.00 | 0.01 | 0.01 | 77 | 1014.4 |
| 20260904183207 | 65 | 356 | 0.0 | 1.0 | 0.00 | 0.01 | 0.01 | 78 | 1014.1 |
| 20260904182702 | 67 | 53 | 2.0 | 2.0 | 0.00 | 0.01 | 0.01 | 76 | 1014.2 |
| 20260904182157 | 67 | 24 | 1.0 | 1.0 | 0.00 | 0.01 | 0.01 | 77 | 1014.4 |
| 20260904181653 | 68 | 240 | 1.0 | 2.0 | 0.00 | 0.01 | 0.01 | 60 | 1014.2 |
| 20260904181152 | 67 | 325 | 0.0 | 0.0 | 0.00 | 0.01 | 0.01 | 73 | 1014.4 |
| 20260904180648 | 68 | 97 | 2.0 | 2.0 | 0.00 | 0.01 | 0.01 | 72 | 1014.2 |
| 20260904180143 | 67 | 20 | 0.0 | 1.0 | 0.00 | 0.01 | 0.01 | 75 | 1014.3 |
| 20260904175642 | 67 | 353 | 0.0 | 0.0 | 0.00 | 0.01 | 0.01 | 70 | 1014.4 |
| 20260904175140 | 66 | 127 | 2.0 | 2.0 | 0.00 | 0.01 | 0.01 | 77 | 1014.4 |
| 20260904174635 | 66 | 121 | 2.0 | 2.0 | 0.00 | 0.01 | 0.01 | 80 | 1014.3 |
| 20260904174132 | 65 | 296 | 0.0 | 0.0 | 0.00 | 0.01 | 0.01 | 76 | 1014.4 |
| 20260904173627 | 64 | 342 | 0.0 | 0.0 | 0.00 | 0.01 | 0.01 | 81 | 1014.3 |
| 20260904173117 | 63 | 28 | 2.0 | 2.0 | 0.00 | 0.01 | 0.01 | 83 | 1014.3 |
| 20260904172613 | 63 | 108 | 2.0 | 2.0 | 0.00 | 0.01 | 0.01 | 80 | 1014.3 |
| 20260904172112 | 64 | 33 | 1.0 | 1.0 | 0.00 | 0.01 | 0.01 | 83 | 1014.1 |
| 20260904171607 | 63 | 45 | 3.0 | 3.0 | 0.00 | 0.01 | 0.01 | 82 | 1014.2 |
| 20260904171103 | 64 | 240 | 3.0 | 3.0 | 0.00 | 0.01 | 0.01 | 75 | 1014.0 |
| 20260904170558 | 64 | 240 | 3.0 | 3.0 | 0.00 | 0.01 | 0.01 | 75 | 1014.0 |
| 20260904170055 | 63 | 101 | 1.0 | 2.0 | 0.00 | 0.01 | 0.01 | 82 | 1014.1 |
| 20260904165553 | 63 | 101 | 1.0 | 2.0 | 0.00 | 0.01 | 0.01 | 82 | 1014.1 |
| 20260904165053 | 64 | 14 | 0.0 | 1.0 | 0.00 | 0.01 | 0.01 | 83 | 1014.1 |
| 20260904164548 | 62 | 345 | 0.0 | 0.0 | 0.00 | 0.01 | 0.01 | 85 | 1014.0 |
| 20260904164044 | 63 | 27 | 1.0 | 2.0 | 0.00 | 0.01 | 0.01 | 83 | 1014.1 |
| 20260904163543 | 63 | 24 | 2.0 | 2.0 | 0.00 | 0.01 | 0.01 | 84 | 1013.9 |
| 20260904163038 | 63 | 270 | 3.0 | 3.0 | 0.00 | 0.01 | 0.01 | 79 | 1014.0 |
| 20260904162533 | 63 | 359 | 0.0 | 0.0 | 0.00 | 0.01 | 0.01 | 83 | 1013.9 |
| 20260904162028 | 63 | 352 | 0.0 | 0.0 | 0.00 | 0.01 | 0.01 | 84 | 1013.9 |
| 20260904161523 | 62 | 2 | 0.0 | 0.0 | 0.00 | 0.01 | 0.01 | 85 | 1013.9 |
| 20260904161018 | 61 | 3 | 0.0 | 0.0 | 0.00 | 0.01 | 0.01 | 86 | 1014.0 |
| 20260904160513 | 60 | 5 | 0.0 | 0.0 | 0.00 | 0.01 | 0.01 | 87 | 1014.0 |
| 20260904160010 | 60 | 357 | 0.0 | 0.0 | 0.00 | 0.01 | 0.01 | 89 | 1014.0 |
| 20260904155509 | 60 | 358 | 0.0 | 0.0 | 0.00 | 0.01 | 0.01 | 91 | 1014.1 |
| 20260904155008 | 59 | 6 | 0.0 | 0.0 | 0.00 | 0.01 | 0.01 | 97 | 1014.0 |
| 20260904154502 | 58 | 291 | 0.0 | 0.0 | 0.00 | 0.01 | 0.01 | 98 | 1013.9 |
| 20260904153956 | 58 | 273 | 0.0 | 0.0 | 0.00 | 0.01 | 0.01 | 99 | 1013.9 |
| 20260904153452 | 59 | 280 | 0.0 | 0.0 | 0.00 | 0.01 | 0.01 | 99 | 1014.0 |
| 20260904152948 | 60 | 283 | 0.0 | 0.0 | 0.00 | 0.01 | 0.01 | 99 | 1014.0 |
| 20260904152443 | 60 | 283 | 0.0 | 0.0 | 0.00 | 0.01 | 0.01 | 99 | 1013.8 |
| 20260904151943 | 58 | 283 | 0.0 | 0.0 | 0.00 | 0.01 | 0.01 | 99 | 1013.9 |
| 20260904151439 | 59 | 283 | 0.0 | 0.0 | 0.00 | 0.01 | 0.01 | 99 | 1013.9 |
| 20260904150933 | 58 | 283 | 0.0 | 0.0 | 0.00 | 0.01 | 0.01 | 99 | 1013.8 |
| 20260904150428 | 55 | 283 | 0.0 | 0.0 | 0.00 | 0.01 | 0.01 | 99 | 1013.9 |
| 20260904145926 | 54 | 283 | 0.0 | 0.0 | 0.00 | 0.01 | 0.01 | 99 | 1013.8 |
| 20260904145422 | 53 | 282 | 0.0 | 0.0 | 0.00 | 0.01 | 0.01 | 99 | 1013.8 |
| 20260904144917 | 53 | 282 | 0.0 | 0.0 | 0.00 | 0.01 | 0.01 | 99 | 1013.6 |
| 20260904144413 | 52 | 282 | 0.0 | 0.0 | 0.00 | 0.01 | 0.01 | 99 | 1013.5 |
| 20260904143909 | 51 | 282 | 0.0 | 0.0 | 0.00 | 0.01 | 0.01 | 99 | 1013.6 |
| 20260904143406 | 51 | 282 | 0.0 | 0.0 | 0.00 | 0.01 | 0.01 | 99 | 1013.6 |
| 20260904142902 | 50 | 282 | 0.0 | 0.0 | 0.00 | 0.01 | 0.01 | 99 | 1013.4 |
| 20260904142357 | 49 | 282 | 0.0 | 0.0 | 0.00 | 0.01 | 0.01 | 99 | 1013.4 |
| 20260904141857 | 49 | 282 | 0.0 | 0.0 | 0.00 | 0.01 | 0.01 | 99 | 1013.4 |
| 20260904141352 | 48 | 282 | 0.0 | 0.0 | 0.00 | 0.01 | 0.01 | 99 | 1013.4 |
| 20260904140849 | 48 | 282 | 0.0 | 0.0 | 0.00 | 0.01 | 0.01 | 99 | 1013.3 |
| 20260904140343 | 48 | 282 | 0.0 | 0.0 | 0.00 | 0.01 | 0.01 | 99 | 1013.2 |
| 20260904135842 | 48 | 282 | 0.0 | 0.0 | 0.00 | 0.01 | 0.01 | 99 | 1013.2 |
| 20260904134555 | 48 | 282 | 0.0 | 0.0 | 0.00 | 0.01 | 0.01 | 99 | 1012.9 |
| 20260904134048 | 48 | 282 | 0.0 | 0.0 | 0.00 | 0.01 | 0.01 | 99 | 1012.9 |
| 20260904133543 | 48 | 282 | 0.0 | 0.0 | 0.00 | 0.01 | 0.01 | 99 | 1012.9 |
| 20260904133039 | 49 | 282 | 0.0 | 0.0 | 0.00 | 0.01 | 0.01 | 99 | 1012.7 |
| 20260904131244 | 48 | 282 | 0.0 | 0.0 | 0.07 | 0.01 | 0.01 | 99 | 1012.5 |
| 20260904130744 | 48 | 282 | 0.0 | 0.0 | 0.07 | 0.01 | 0.01 | 99 | 1012.5 |
| 20260904130243 | 48 | 282 | 0.0 | 0.0 | 0.07 | 0.01 | 0.01 | 99 | 1012.4 |
| 20260904125550 | 49 | 282 | 0.0 | 0.0 | 0.00 | 0.00 | 0.00 | 99 | 1012.5 |
| 20260904125049 | 49 | 282 | 0.0 | 0.0 | 0.00 | 0.00 | 0.00 | 99 | 1012.5 |
| 20260904124544 | 49 | 282 | 0.0 | 0.0 | 0.00 | 0.00 | 0.00 | 99 | 1012.5 |
| 20260904124040 | 49 | 282 | 0.0 | 0.0 | 0.00 | 0.00 | 0.00 | 99 | 1012.4 |
| 20260904123540 | 49 | 282 | 0.0 | 0.0 | 0.00 | 0.00 | 0.00 | 99 | 1012.5 |
| 20260904123036 | 49 | 283 | 0.0 | 0.0 | 0.00 | 0.00 | 0.00 | 99 | 1012.5 |
| 20260904122531 | 49 | 283 | 0.0 | 0.0 | 0.00 | 0.00 | 0.00 | 99 | 1012.5 |
| 20260904122026 | 49 | 283 | 0.0 | 0.0 | 0.00 | 0.00 | 0.00 | 99 | 1012.4 |
| 20260904121521 | 49 | 283 | 0.0 | 0.0 | 0.00 | 0.00 | 0.00 | 99 | 1012.3 |
| 20260904121017 | 49 | 283 | 0.0 | 0.0 | 0.00 | 0.00 | 0.00 | 99 | 1012.3 |
| 20260904120513 | 49 | 283 | 0.0 | 0.0 | 0.00 | 0.00 | 0.00 | 99 | 1012.3 |
| 20260904120008 | 49 | 283 | 0.0 | 0.0 | 0.00 | 0.00 | 0.00 | 99 | 1012.3 |
| 20260904115504 | 49 | 285 | 0.0 | 0.0 | 0.00 | 0.00 | 0.00 | 99 | 1012.4 |
| 20260904115003 | 49 | 285 | 0.0 | 0.0 | 0.00 | 0.00 | 0.00 | 99 | 1012.3 |
| 20260904114458 | 49 | 285 | 0.0 | 0.0 | 0.00 | 0.00 | 0.00 | 99 | 1012.3 |
| 20260904113953 | 49 | 284 | 0.0 | 0.0 | 0.00 | 0.00 | 0.00 | 99 | 1012.3 |
| 20260904113452 | 49 | 284 | 0.0 | 0.0 | 0.00 | 0.00 | 0.00 | 99 | 1012.3 |
| 20260904112945 | 49 | 284 | 0.0 | 0.0 | 0.00 | 0.00 | 0.00 | 99 | 1012.5 |
| 20260904112441 | 50 | 284 | 0.0 | 0.0 | 0.00 | 0.00 | 0.00 | 99 | 1012.5 |
| 20260904111931 | 50 | 284 | 0.0 | 0.0 | 0.00 | 0.00 | 0.00 | 99 | 1012.4 |
| 20260904111426 | 50 | 286 | 0.0 | 0.0 | 0.00 | 0.00 | 0.00 | 99 | 1012.4 |
| 20260904110917 | 50 | 286 | 0.0 | 0.0 | 0.00 | 0.00 | 0.00 | 99 | 1012.4 |
| 20260904110415 | 50 | 286 | 0.0 | 1.0 | 0.00 | 0.00 | 0.00 | 99 | 1012.3 |
| 20260904105911 | 50 | 286 | 0.0 | 1.0 | 0.00 | 0.00 | 0.00 | 99 | 1012.4 |
| 20260904105406 | 50 | 288 | 0.0 | 0.0 | 0.00 | 0.00 | 0.00 | 99 | 1012.4 |
| 20260904104901 | 50 | 287 | 0.0 | 0.0 | 0.00 | 0.00 | 0.00 | 99 | 1012.2 |
| 20260904104355 | 50 | 288 | 0.0 | 0.0 | 0.00 | 0.00 | 0.00 | 99 | 1012.5 |
| 20260904103853 | 50 | 287 | 0.0 | 0.0 | 0.00 | 0.00 | 0.00 | 99 | 1012.2 |
| 20260904103353 | 51 | 287 | 0.0 | 0.0 | 0.00 | 0.00 | 0.00 | 99 | 1012.4 |
| 20260904102849 | 51 | 288 | 0.0 | 0.0 | 0.00 | 0.00 | 0.00 | 99 | 1012.2 |
| 20260904102344 | 51 | 288 | 0.0 | 0.0 | 0.00 | 0.00 | 0.00 | 99 | 1012.2 |
| 20260904101840 | 51 | 288 | 0.0 | 0.0 | 0.00 | 0.00 | 0.00 | 99 | 1012.2 |
| 20260904101336 | 51 | 288 | 0.0 | 0.0 | 0.00 | 0.00 | 0.00 | 99 | 1012.4 |
| 20260904100831 | 51 | 288 | 0.0 | 0.0 | 0.00 | 0.00 | 0.00 | 99 | 1012.4 |
| 20260904100327 | 52 | 287 | 1.0 | 1.0 | 0.00 | 0.00 | 0.00 | 99 | 1012.4 |
| 20260904095822 | 52 | 287 | 0.0 | 0.0 | 0.00 | 0.00 | 0.00 | 99 | 1012.4 |
| 20260904095316 | 52 | 288 | 0.0 | 0.0 | 0.00 | 0.00 | 0.00 | 99 | 1012.3 |
| 20260904094812 | 51 | 287 | 0.0 | 0.0 | 0.00 | 0.00 | 0.00 | 99 | 1012.3 |
| 20260904094306 | 51 | 287 | 0.0 | 0.0 | 0.00 | 0.00 | 0.00 | 99 | 1012.1 |
| 20260904093803 | 51 | 287 | 0.0 | 0.0 | 0.00 | 0.00 | 0.00 | 99 | 1012.2 |
| 20260904093257 | 51 | 287 | 0.0 | 0.0 | 0.00 | 0.00 | 0.00 | 99 | 1012.0 |
| 20260904092752 | 51 | 287 | 0.0 | 0.0 | 0.00 | 0.00 | 0.00 | 99 | 1012.2 |
| 20260904092249 | 51 | 287 | 0.0 | 0.0 | 0.00 | 0.00 | 0.00 | 99 | 1012.0 |
| 20260904091744 | 51 | 289 | 0.0 | 0.0 | 0.00 | 0.00 | 0.00 | 99 | 1012.1 |
| 20260904091239 | 51 | 289 | 0.0 | 0.0 | 0.00 | 0.00 | 0.00 | 99 | 1012.1 |
| 20260904090735 | 51 | 289 | 0.0 | 0.0 | 0.00 | 0.00 | 0.00 | 99 | 1012.0 |
| 20260904090230 | 51 | 290 | 0.0 | 0.0 | 0.00 | 0.00 | 0.00 | 99 | 1012.2 |
| 20260904085725 | 51 | 290 | 0.0 | 0.0 | 0.00 | 0.00 | 0.00 | 99 | 1012.4 |
| 20260904085220 | 52 | 289 | 0.0 | 0.0 | 0.00 | 0.00 | 0.00 | 99 | 1012.3 |
| 20260904084720 | 52 | 293 | 0.0 | 0.0 | 0.00 | 0.00 | 0.00 | 99 | 1012.3 |
| 20260904084216 | 52 | 297 | 0.0 | 0.0 | 0.00 | 0.00 | 0.00 | 99 | 1012.4 |
| 20260904083712 | 52 | 291 | 0.0 | 0.0 | 0.00 | 0.00 | 0.00 | 99 | 1012.2 |
| 20260904083209 | 52 | 291 | 0.0 | 0.0 | 0.00 | 0.00 | 0.00 | 99 | 1012.5 |
| 20260904082703 | 53 | 291 | 0.0 | 0.0 | 0.00 | 0.00 | 0.00 | 99 | 1012.3 |
| 20260904082159 | 53 | 290 | 0.0 | 0.0 | 0.00 | 0.00 | 0.00 | 99 | 1012.3 |
| 20260904081653 | 53 | 296 | 0.0 | 0.0 | 0.00 | 0.00 | 0.00 | 99 | 1012.3 |
| 20260904081148 | 53 | 298 | 0.0 | 0.0 | 0.00 | 0.00 | 0.00 | 99 | 1012.3 |
| 20260904080645 | 53 | 300 | 0.0 | 0.0 | 0.00 | 0.00 | 0.00 | 99 | 1012.1 |
| 20260904080140 | 53 | 294 | 0.0 | 0.0 | 0.00 | 0.00 | 0.00 | 99 | 1012.2 |
| 20260904075637 | 53 | 297 | 0.0 | 0.0 | 0.00 | 0.00 | 0.00 | 99 | 1012.3 |
| 20260904075137 | 53 | 303 | 0.0 | 0.0 | 0.00 | 0.00 | 0.00 | 99 | 1012.2 |
| 20260904074631 | 53 | 304 | 0.0 | 0.0 | 0.00 | 0.00 | 0.00 | 99 | 1012.3 |
| 20260904074125 | 53 | 287 | 0.0 | 1.0 | 0.00 | 0.00 | 0.00 | 99 | 1012.3 |
| 20260904073620 | 54 | 310 | 0.0 | 0.0 | 0.00 | 0.00 | 0.00 | 99 | 1012.3 |
| 20260904073117 | 53 | 312 | 0.0 | 0.0 | 0.00 | 0.00 | 0.00 | 99 | 1012.3 |
| 20260904072612 | 54 | 312 | 0.0 | 0.0 | 0.00 | 0.00 | 0.00 | 99 | 1012.2 |
| 20260904072107 | 53 | 313 | 0.0 | 0.0 | 0.00 | 0.00 | 0.00 | 99 | 1012.2 |
| 20260904071603 | 54 | 313 | 0.0 | 0.0 | 0.00 | 0.00 | 0.00 | 99 | 1012.2 |
| 20260904071058 | 54 | 304 | 0.0 | 0.0 | 0.00 | 0.00 | 0.00 | 99 | 1012.2 |
| 20260904070556 | 54 | 300 | 0.0 | 0.0 | 0.00 | 0.00 | 0.00 | 99 | 1012.3 |
| 20260904070051 | 54 | 305 | 0.0 | 0.0 | 0.00 | 0.00 | 0.00 | 99 | 1012.2 |
| 20260904065546 | 54 | 300 | 0.0 | 0.0 | 0.00 | 0.76 | 0.76 | 99 | 1012.0 |
| 20260904065043 | 54 | 278 | 1.0 | 1.0 | 0.00 | 0.76 | 0.76 | 99 | 1012.2 |
| 20260904064539 | 54 | 290 | 1.0 | 1.0 | 0.00 | 0.76 | 0.76 | 99 | 1012.2 |
| 20260904064038 | 55 | 290 | 0.0 | 1.0 | 0.00 | 0.76 | 0.76 | 99 | 1012.2 |
| 20260904063535 | 55 | 304 | 0.0 | 0.0 | 0.00 | 0.76 | 0.76 | 99 | 1012.4 |
| 20260904063029 | 55 | 302 | 0.0 | 0.0 | 0.00 | 0.76 | 0.76 | 99 | 1012.3 |
| 20260904062526 | 55 | 300 | 0.0 | 0.0 | 0.00 | 0.76 | 0.76 | 99 | 1012.0 |
| 20260904062021 | 55 | 302 | 0.0 | 0.0 | 0.00 | 0.76 | 0.76 | 99 | 1012.2 |
| 20260904061511 | 55 | 272 | 1.0 | 1.0 | 0.00 | 0.76 | 0.76 | 99 | 1012.1 |
| 20260904061008 | 55 | 301 | 0.0 | 0.0 | 0.00 | 0.76 | 0.76 | 99 | 1012.2 |
| 20260904060503 | 55 | 280 | 0.0 | 1.0 | 0.00 | 0.76 | 0.76 | 99 | 1012.0 |
| 20260904055959 | 55 | 303 | 0.0 | 0.0 | 0.00 | 0.76 | 0.76 | 99 | 1012.3 |
| 20260904055454 | 55 | 304 | 0.0 | 0.0 | 0.00 | 0.76 | 0.76 | 99 | 1012.4 |
| 20260904054950 | 56 | 304 | 0.0 | 0.0 | 0.00 | 0.76 | 0.76 | 99 | 1012.4 |
| 20260904054445 | 56 | 284 | 1.0 | 1.0 | 0.00 | 0.76 | 0.76 | 99 | 1012.2 |
| 20260904053940 | 56 | 313 | 0.0 | 0.0 | 0.00 | 0.76 | 0.76 | 99 | 1012.2 |
| 20260904053440 | 57 | 300 | 0.0 | 0.0 | 0.00 | 0.76 | 0.76 | 99 | 1012.3 |
| 20260904052936 | 57 | 307 | 0.0 | 0.0 | 0.00 | 0.76 | 0.76 | 99 | 1012.6 |
| 20260904052432 | 57 | 301 | 0.0 | 0.0 | 0.00 | 0.76 | 0.76 | 99 | 1012.3 |
| 20260904051928 | 57 | 316 | 0.0 | 1.0 | 0.00 | 0.76 | 0.76 | 98 | 1012.4 |
| 20260904051425 | 57 | 284 | 1.0 | 1.0 | 0.00 | 0.76 | 0.76 | 98 | 1012.6 |
| 20260904050923 | 58 | 283 | 1.0 | 1.0 | 0.00 | 0.76 | 0.76 | 98 | 1012.5 |
| 20260904050420 | 58 | 291 | 0.0 | 0.0 | 0.00 | 0.76 | 0.76 | 98 | 1012.4 |
| 20260904045920 | 58 | 291 | 0.0 | 0.0 | 0.00 | 0.76 | 0.76 | 97 | 1012.5 |
| 20260904045415 | 58 | 288 | 0.0 | 0.0 | 0.00 | 0.76 | 0.76 | 97 | 1012.6 |
| 20260904044914 | 59 | 299 | 0.0 | 0.0 | 0.00 | 0.76 | 0.76 | 97 | 1012.5 |
| 20260904044412 | 59 | 293 | 0.0 | 0.0 | 0.00 | 0.76 | 0.76 | 97 | 1012.5 |
| 20260904043908 | 59 | 294 | 0.0 | 0.0 | 0.00 | 0.76 | 0.76 | 96 | 1012.6 |
| 20260904043404 | 59 | 306 | 0.0 | 0.0 | 0.00 | 0.76 | 0.76 | 96 | 1012.4 |
| 20260904042859 | 59 | 313 | 0.0 | 0.0 | 0.00 | 0.76 | 0.76 | 96 | 1012.4 |
| 20260904042355 | 59 | 321 | 0.0 | 0.0 | 0.00 | 0.76 | 0.76 | 95 | 1012.5 |
| 20260904041849 | 59 | 319 | 0.0 | 0.0 | 0.00 | 0.76 | 0.76 | 95 | 1012.4 |
| 20260904041346 | 59 | 321 | 0.0 | 0.0 | 0.00 | 0.76 | 0.76 | 96 | 1012.4 |
| 20260904040842 | 59 | 300 | 0.0 | 0.0 | 0.00 | 0.76 | 0.76 | 95 | 1012.3 |
| 20260904040337 | 59 | 299 | 0.0 | 0.0 | 0.00 | 0.76 | 0.76 | 95 | 1012.3 |
| 20260904035833 | 59 | 308 | 0.0 | 0.0 | 0.00 | 0.76 | 0.76 | 95 | 1012.4 |
| 20260904035329 | 59 | 306 | 0.0 | 1.0 | 0.00 | 0.76 | 0.76 | 95 | 1012.3 |
| 20260904034827 | 59 | 298 | 1.0 | 1.0 | 0.00 | 0.76 | 0.76 | 95 | 1012.5 |
| 20260904034323 | 59 | 306 | 1.0 | 1.0 | 0.00 | 0.76 | 0.76 | 95 | 1012.3 |
| 20260904033819 | 59 | 317 | 0.0 | 0.0 | 0.00 | 0.76 | 0.76 | 95 | 1012.1 |
| 20260904033315 | 59 | 291 | 0.0 | 0.0 | 0.00 | 0.76 | 0.76 | 95 | 1012.2 |
| 20260904032811 | 59 | 294 | 0.0 | 1.0 | 0.00 | 0.76 | 0.76 | 95 | 1012.2 |
| 20260904032311 | 59 | 309 | 0.0 | 0.0 | 0.00 | 0.76 | 0.76 | 94 | 1012.2 |
| 20260904031805 | 59 | 337 | 0.0 | 0.0 | 0.00 | 0.76 | 0.76 | 94 | 1012.1 |
| 20260904031300 | 59 | 290 | 1.0 | 2.0 | 0.00 | 0.76 | 0.76 | 95 | 1011.9 |
| 20260904030756 | 59 | 327 | 0.0 | 0.0 | 0.00 | 0.76 | 0.76 | 95 | 1012.1 |
| 20260904030251 | 59 | 303 | 1.0 | 2.0 | 0.00 | 0.76 | 0.76 | 95 | 1012.1 |
| 20260904025748 | 59 | 293 | 0.0 | 0.0 | 0.00 | 0.76 | 0.76 | 95 | 1012.2 |
| 20260904025242 | 60 | 305 | 2.0 | 2.0 | 0.00 | 0.76 | 0.76 | 95 | 1012.1 |
| 20260904024732 | 60 | 288 | 0.0 | 1.0 | 0.00 | 0.76 | 0.76 | 95 | 1012.1 |
| 20260904024227 | 60 | 340 | 0.0 | 0.0 | 0.00 | 0.76 | 0.76 | 95 | 1012.1 |
| 20260904023724 | 60 | 304 | 2.0 | 3.0 | 0.00 | 0.76 | 0.76 | 95 | 1012.2 |
| 20260904023219 | 60 | 334 | 0.0 | 0.0 | 0.00 | 0.76 | 0.76 | 95 | 1012.1 |
| 20260904022718 | 60 | 285 | 2.0 | 5.0 | 0.00 | 0.76 | 0.76 | 95 | 1012.2 |
| 20260904022216 | 60 | 316 | 0.0 | 0.0 | 0.00 | 0.76 | 0.76 | 95 | 1012.2 |
| 20260904021712 | 60 | 319 | 0.0 | 0.0 | 0.00 | 0.76 | 0.76 | 94 | 1012.2 |
| 20260904021206 | 60 | 299 | 3.0 | 3.0 | 0.00 | 0.76 | 0.76 | 94 | 1012.4 |
| 20260904020703 | 60 | 315 | 0.0 | 1.0 | 0.00 | 0.76 | 0.76 | 94 | 1012.2 |
| 20260904020201 | 60 | 306 | 1.0 | 2.0 | 0.00 | 0.76 | 0.76 | 94 | 1012.2 |
| 20260904015700 | 60 | 313 | 1.0 | 1.0 | 0.00 | 0.76 | 0.76 | 95 | 1012.3 |
| 20260904015155 | 60 | 262 | 3.0 | 3.0 | 0.00 | 0.76 | 0.76 | 95 | 1012.3 |
| 20260904014654 | 60 | 301 | 1.0 | 1.0 | 0.00 | 0.76 | 0.76 | 95 | 1012.4 |
| 20260904014149 | 60 | 309 | 2.0 | 2.0 | 0.00 | 0.76 | 0.76 | 95 | 1012.2 |
| 20260904013646 | 60 | 260 | 3.0 | 3.0 | 0.00 | 0.76 | 0.76 | 94 | 1012.2 |
| 20260904013141 | 61 | 312 | 1.0 | 2.0 | 0.00 | 0.76 | 0.76 | 94 | 1012.4 |
| 20260904012637 | 61 | 313 | 1.0 | 1.0 | 0.00 | 0.76 | 0.76 | 93 | 1012.3 |
| 20260904012136 | 61 | 307 | 0.0 | 1.0 | 0.00 | 0.76 | 0.76 | 93 | 1012.4 |
| 20260904011635 | 61 | 296 | 0.0 | 1.0 | 0.00 | 0.76 | 0.76 | 94 | 1012.3 |
| 20260904011131 | 61 | 308 | 1.0 | 2.0 | 0.00 | 0.76 | 0.76 | 94 | 1012.3 |
| 20260904010627 | 61 | 299 | 1.0 | 1.0 | 0.00 | 0.76 | 0.76 | 94 | 1012.4 |
| 20260904010123 | 61 | 307 | 0.0 | 1.0 | 0.00 | 0.76 | 0.76 | 93 | 1012.5 |
| 20260904005618 | 62 | 296 | 0.0 | 0.0 | 0.00 | 0.76 | 0.76 | 94 | 1012.4 |
| 20260904005113 | 61 | 267 | 2.0 | 2.0 | 0.00 | 0.76 | 0.76 | 93 | 1012.5 |
| 20260904004609 | 61 | 273 | 2.0 | 2.0 | 0.00 | 0.76 | 0.76 | 92 | 1012.4 |
| 20260904004109 | 61 | 323 | 0.0 | 1.0 | 0.00 | 0.76 | 0.76 | 93 | 1012.5 |
| 20260904003605 | 62 | 301 | 0.0 | 0.0 | 0.00 | 0.76 | 0.76 | 94 | 1012.4 |
| 20260904003101 | 62 | 246 | 4.0 | 5.0 | 0.00 | 0.76 | 0.76 | 93 | 1012.5 |
| 20260904002556 | 62 | 259 | 1.0 | 2.0 | 0.00 | 0.76 | 0.76 | 94 | 1012.4 |
| 20260904002050 | 62 | 287 | 2.0 | 2.0 | 0.00 | 0.76 | 0.76 | 95 | 1012.5 |
| 20260904001546 | 62 | 315 | 0.0 | 1.0 | 0.00 | 0.76 | 0.76 | 96 | 1012.5 |
| 20260904001044 | 61 | 316 | 0.0 | 1.0 | 0.00 | 0.76 | 0.76 | 97 | 1012.7 |
| 20260904000539 | 61 | 230 | 1.0 | 2.0 | 0.00 | 0.76 | 0.76 | 98 | 1012.7 |
| 20260904000035 | 61 | 215 | 2.0 | 2.0 | 0.00 | 0.76 | 0.76 | 98 | 1012.8 |
| 20260903235530 | 61 | 241 | 1.0 | 1.0 | 0.00 | 0.76 | 0.76 | 98 | 1012.9 |
| 20260903235026 | 60 | 296 | 0.0 | 1.0 | 0.00 | 0.76 | 0.76 | 98 | 1013.0 |
| 20260903234521 | 60 | 274 | 1.0 | 1.0 | 0.00 | 0.76 | 0.76 | 98 | 1012.9 |
| 20260903234017 | 60 | 309 | 0.0 | 0.0 | 0.00 | 0.76 | 0.76 | 98 | 1013.1 |
| 20260903233512 | 60 | 264 | 1.0 | 2.0 | 0.00 | 0.76 | 0.76 | 98 | 1013.0 |
| 20260903233008 | 60 | 305 | 0.0 | 1.0 | 0.00 | 0.76 | 0.76 | 97 | 1013.0 |
| 20260903232502 | 60 | 229 | 2.0 | 2.0 | 0.00 | 0.76 | 0.76 | 97 | 1012.9 |
| 20260903231956 | 61 | 298 | 0.0 | 1.0 | 0.00 | 0.76 | 0.76 | 97 | 1013.0 |
| 20260903231451 | 61 | 286 | 1.0 | 1.0 | 0.00 | 0.76 | 0.76 | 97 | 1013.1 |
| 20260903230946 | 61 | 278 | 0.0 | 1.0 | 0.05 | 0.76 | 0.76 | 96 | 1013.3 |
| 20260903230442 | 61 | 242 | 2.0 | 3.0 | 0.05 | 0.76 | 0.76 | 96 | 1013.2 |
| 20260903225939 | 61 | 172 | 1.0 | 2.0 | 0.07 | 0.75 | 0.75 | 95 | 1013.3 |
| 20260903225433 | 62 | 225 | 2.0 | 2.0 | 0.07 | 0.75 | 0.75 | 94 | 1013.4 |
| 20260903224930 | 62 | 329 | 0.0 | 0.0 | 0.00 | 0.74 | 0.74 | 94 | 1013.4 |
| 20260903224425 | 62 | 295 | 0.0 | 0.0 | 0.00 | 0.74 | 0.74 | 93 | 1013.4 |
| 20260903223921 | 63 | 298 | 1.0 | 2.0 | 0.00 | 0.74 | 0.74 | 92 | 1013.6 |
| 20260903223419 | 63 | 229 | 1.0 | 2.0 | 0.00 | 0.74 | 0.74 | 90 | 1013.5 |
| 20260903222913 | 64 | 309 | 1.0 | 1.0 | 0.00 | 0.74 | 0.74 | 87 | 1013.5 |
| 20260903222408 | 65 | 304 | 0.0 | 0.0 | 0.00 | 0.74 | 0.74 | 87 | 1013.4 |
| 20260903221902 | 65 | 278 | 1.0 | 1.0 | 0.00 | 0.74 | 0.74 | 87 | 1013.4 |
| 20260903221401 | 65 | 335 | 0.0 | 0.0 | 0.00 | 0.74 | 0.74 | 87 | 1013.5 |
| 20260903220859 | 64 | 318 | 0.0 | 1.0 | 0.00 | 0.74 | 0.74 | 86 | 1013.2 |
| 20260903220348 | 65 | 227 | 3.0 | 3.0 | 0.00 | 0.74 | 0.74 | 85 | 1013.4 |
| 20260903215846 | 65 | 276 | 1.0 | 1.0 | 0.00 | 0.74 | 0.74 | 86 | 1013.6 |
| 20260903215343 | 66 | 289 | 1.0 | 2.0 | 0.00 | 0.74 | 0.74 | 84 | 1013.4 |
| 20260903214841 | 66 | 321 | 0.0 | 0.0 | 0.00 | 0.74 | 0.74 | 84 | 1013.4 |
| 20260903214337 | 66 | 303 | 3.0 | 5.0 | 0.00 | 0.74 | 0.74 | 84 | 1013.6 |
| 20260903213831 | 66 | 326 | 0.0 | 1.0 | 0.00 | 0.74 | 0.74 | 83 | 1013.7 |
| 20260903213327 | 67 | 284 | 2.0 | 2.0 | 0.00 | 0.74 | 0.74 | 82 | 1013.5 |
| 20260903212823 | 67 | 275 | 0.0 | 2.0 | 0.00 | 0.74 | 0.74 | 83 | 1013.6 |
| 20260903212319 | 67 | 348 | 2.0 | 2.0 | 0.00 | 0.74 | 0.74 | 83 | 1013.6 |
| 20260903211818 | 66 | 322 | 0.0 | 0.0 | 0.00 | 0.74 | 0.74 | 84 | 1013.5 |